Weather History for Monument Pass, CO

Change the Weather History Date:

Wednesday, June 12, 2013

  Actual Average (KAPA) Record (KAPA)
Temperature  
Mean Temperature 64 °F -  
Max Temperature 82 °F 75 °F 91 °F (2000)
Min Temperature 46 °F 47 °F 43 °F (2004)
Degree Days  
Heating Degree Days 1    
Growing Degree Days 14 (Base 50)    
Moisture  
Dew Point 24 °F    
Average Humidity 20    
Maximum Humidity 37    
Minimum Humidity 11    
Precipitation  
Precipitation 0.00 in - - ()
Sea Level Pressure  
Sea Level Pressure 30.24 in    
Wind  
Wind Speed 10 mph (SE)    
Max Wind Speed 31 mph    
Max Gust Speed 39 mph    
Visibility 9 miles    
Events      
Averages and records for this station are not official NWS values.
T = Trace of Precipitation, MM = Missing Value Source: NWS Daily Summary

Daily Weather History Graph

Daily Weather History Graph

Search for Another Location

Airport:

Trip Planner

Search our weather history database for the weather conditions in past years. The results will help you decide how hot, cold, wet, or windy it might be!

Date:

Astronomy

Jun. 12, 2013 Rise Set
Actual Time 5:31 AM MDT 8:25 PM MDT
Civil Twilight 4:59 AM MDT 8:57 PM MDT
Nautical Twilight 4:18 AM MDT 9:38 PM MDT
Astronomical Twilight 3:32 AM MDT 10:25 PM MDT
Moon 9:12 AM MDT (6/12) 11:04 PM MDT (6/12)
Length of Visible Light 15h 58m
Length of Day
14h 53m
Waxing Crescent, 14% of the Moon is Illuminated
Jun 12
Waxing Crescent
Jun 16
First Quarter
Jun 23
Full
Jun 29
Last Quarter
Jul 8
New

Hourly Weather History & Observations

Time (MDT) Temp. Dew Point Humidity Pressure Visibility Wind Dir Wind Speed Gust Speed Precip Events Conditions
12:14 AM 62.6 °F 19.4 °F 19% 30.17 in 10.0 mi NW 6.9 mph - N/A   Clear
12:33 AM 60.8 °F 21.2 °F 22% 30.18 in 10.0 mi West 9.2 mph - N/A   Clear
12:54 AM 60.8 °F 21.2 °F 22% 30.18 in 10.0 mi WNW 9.2 mph - N/A   Clear
1:14 AM 60.8 °F 21.2 °F 22% 30.19 in 10.0 mi WNW 5.8 mph - N/A   Clear
1:34 AM 60.8 °F 19.4 °F 20% 30.20 in 10.0 mi North 6.9 mph - N/A   Clear
1:54 AM 60.8 °F 19.4 °F 20% 30.21 in 10.0 mi North 5.8 mph - N/A   Clear
2:14 AM 62.6 °F 21.2 °F 20% 30.21 in 10.0 mi NE 4.6 mph - N/A   Clear
2:34 AM 59.0 °F 21.2 °F 23% 30.22 in 10.0 mi East 5.8 mph - N/A   Clear
2:54 AM 57.2 °F 21.2 °F 25% 30.23 in 10.0 mi Calm Calm - N/A   Clear
3:14 AM 55.4 °F 21.2 °F 26% 30.23 in 10.0 mi Calm Calm - N/A   Clear
3:34 AM 51.8 °F 21.2 °F 30% 30.23 in 10.0 mi Calm Calm - N/A   Clear
3:54 AM 51.8 °F 21.2 °F 30% 30.24 in 10.0 mi SW 5.8 mph - N/A   Clear
4:14 AM 50.0 °F 21.2 °F 32% 30.24 in 10.0 mi Calm Calm - N/A   Clear
4:34 AM 46.4 °F 21.2 °F 37% 30.25 in 10.0 mi Calm Calm - N/A   Clear
4:54 AM 46.4 °F 21.2 °F 37% 30.25 in 10.0 mi Calm Calm - N/A   Clear
5:14 AM 48.2 °F 21.2 °F 34% 30.25 in 10.0 mi Calm Calm - N/A   Clear
5:34 AM 50.0 °F 21.2 °F 32% 30.26 in 10.0 mi Calm Calm - N/A   Clear
5:54 AM 50.0 °F 23.0 °F 35% 30.27 in 5.0 mi South 8.1 mph - N/A   Haze
6:14 AM 51.8 °F 23.0 °F 33% 30.28 in 10.0 mi SSE 5.8 mph - N/A   Clear
6:34 AM 55.4 °F 23.0 °F 29% 30.28 in 10.0 mi SE 4.6 mph - N/A   Clear
6:54 AM 60.8 °F 23.0 °F 23% 30.29 in 10.0 mi SE 3.5 mph - N/A   Clear
7:14 AM 60.8 °F 26.6 °F 27% 30.29 in 10.0 mi SE 3.5 mph - N/A   Clear
7:33 AM 62.6 °F 26.6 °F 26% 30.29 in 10.0 mi Calm Calm - N/A   Clear
7:53 AM 66.2 °F 24.8 °F 21% 30.30 in 10.0 mi East 4.6 mph - N/A   Clear
8:14 AM 68.0 °F 23.0 °F 18% 30.30 in 10.0 mi NE 4.6 mph - N/A   Clear
8:34 AM 69.8 °F 23.0 °F 17% 30.30 in 10.0 mi NNE 5.8 mph - N/A   Clear
8:54 AM 71.6 °F 23.0 °F 16% 30.30 in 10.0 mi ENE 9.2 mph - N/A   Clear
9:14 AM 71.6 °F 23.0 °F 16% 30.30 in 10.0 mi NNE 9.2 mph - N/A   Clear
9:34 AM 73.4 °F 23.0 °F 15% 30.29 in 10.0 mi NE 6.9 mph - N/A   Clear
9:54 AM 73.4 °F 23.0 °F 15% 30.29 in 10.0 mi NE 5.8 mph - N/A   Clear
10:14 AM 75.2 °F 24.8 °F 15% 30.30 in 10.0 mi East 10.4 mph 18.4 mph N/A   Clear
10:34 AM 75.2 °F 24.8 °F 15% 30.30 in 10.0 mi East 10.4 mph - N/A   Clear
10:54 AM 77.0 °F 24.8 °F 14% 30.30 in 10.0 mi East 5.8 mph - N/A   Clear
11:14 AM 75.2 °F 26.6 °F 17% 30.30 in 10.0 mi SE 9.2 mph - N/A   Clear
11:34 AM 78.8 °F 26.6 °F 15% 30.30 in 10.0 mi SE 9.2 mph 18.4 mph N/A   Clear
11:54 AM 78.8 °F 26.6 °F 15% 30.29 in 10.0 mi ESE 12.7 mph 18.4 mph N/A   Clear
12:14 PM 80.6 °F 24.8 °F 13% 30.28 in 10.0 mi SE 13.8 mph 19.6 mph N/A   Clear
12:34 PM 80.6 °F 23.0 °F 12% 30.27 in 10.0 mi SSE 16.1 mph 23.0 mph N/A   Clear
12:54 PM 80.6 °F 23.0 °F 12% 30.26 in 10.0 mi SSE 17.3 mph 25.3 mph N/A   Clear
1:14 PM 80.6 °F 23.0 °F 12% 30.25 in 10.0 mi SSE 20.7 mph 26.5 mph N/A   Clear
1:33 PM 82.4 °F 23.0 °F 11% 30.24 in 7.0 mi SSE 23.0 mph 29.9 mph N/A   Clear
1:54 PM 80.6 °F 23.0 °F 12% 30.23 in 5.0 mi SSE 25.3 mph 32.2 mph N/A   Haze
2:13 PM 80.6 °F 23.0 °F 12% 30.23 in 4.0 mi SSE 24.2 mph 32.2 mph N/A   Haze
2:34 PM 82.4 °F 23.0 °F 11% 30.22 in 3.0 mi South 27.6 mph 38.0 mph N/A   Haze
2:53 PM 82.4 °F 23.0 °F 11% 30.21 in 7.0 mi South 29.9 mph 36.8 mph N/A   Scattered Clouds
3:14 PM 80.6 °F 23.0 °F 12% 30.20 in 4.0 mi South 28.8 mph 35.7 mph N/A   Haze
3:34 PM 82.4 °F 23.0 °F 11% 30.20 in 7.0 mi SSE 29.9 mph 39.1 mph N/A   Clear
3:54 PM 82.4 °F 24.8 °F 12% 30.18 in 5.0 mi SSE 31.1 mph 36.8 mph N/A   Haze
4:14 PM 82.4 °F 24.8 °F 12% 30.18 in 5.0 mi SSE 29.9 mph 36.8 mph N/A   Haze
4:34 PM 82.4 °F 23.0 °F 11% 30.18 in 7.0 mi South 23.0 mph 36.8 mph N/A   Clear
4:54 PM 82.4 °F 23.0 °F 11% 30.18 in 10.0 mi South 27.6 mph 36.8 mph N/A   Clear
5:14 PM 80.6 °F 23.0 °F 12% 30.18 in 7.0 mi South 25.3 mph 34.5 mph N/A   Clear
5:34 PM 78.8 °F 23.0 °F 13% 30.18 in 7.0 mi South 24.2 mph 32.2 mph N/A   Clear
5:54 PM 78.8 °F 23.0 °F 13% 30.19 in 10.0 mi South 21.9 mph 28.8 mph N/A   Clear
6:14 PM 78.8 °F 23.0 °F 13% 30.19 in 10.0 mi South 18.4 mph 31.1 mph N/A   Clear
6:34 PM 78.8 °F 23.0 °F 13% 30.20 in 10.0 mi South 23.0 mph 27.6 mph N/A   Clear
6:53 PM 78.8 °F 24.8 °F 14% 30.20 in 10.0 mi South 20.7 mph 25.3 mph N/A   Clear
7:14 PM 77.0 °F 23.0 °F 13% 30.21 in 10.0 mi South 16.1 mph 23.0 mph N/A   Clear
7:33 PM 77.0 °F 24.8 °F 14% 30.22 in 7.0 mi South 16.1 mph - N/A   Clear
7:54 PM 77.0 °F 24.8 °F 14% 30.21 in 7.0 mi South 24.2 mph 33.4 mph N/A   Clear
8:14 PM 75.2 °F 23.0 °F 14% 30.22 in 10.0 mi South 17.3 mph 23.0 mph N/A   Clear
8:34 PM 73.4 °F 24.8 °F 16% 30.23 in 10.0 mi SSE 15.0 mph - N/A   Clear
8:54 PM 71.6 °F 23.0 °F 16% 30.24 in 10.0 mi SSE 11.5 mph - N/A   Clear
9:14 PM 69.8 °F 26.6 °F 20% 30.26 in 10.0 mi South 6.9 mph - N/A   Clear
9:34 PM 68.0 °F 26.6 °F 21% 30.26 in 10.0 mi SE 4.6 mph - N/A   Clear
9:54 PM 64.4 °F 26.6 °F 24% 30.26 in 10.0 mi SE 5.8 mph - N/A   Clear
10:14 PM 62.6 °F 26.6 °F 26% 30.26 in 10.0 mi SE 10.4 mph - N/A   Clear
10:34 PM 66.2 °F 30.2 °F 26% 30.25 in 10.0 mi SE 13.8 mph - N/A   Clear
10:54 PM 68.0 °F 30.2 °F 24% 30.24 in 10.0 mi SE 12.7 mph - N/A   Clear
11:14 PM 62.6 °F 30.2 °F 30% 30.24 in 10.0 mi SE 11.5 mph - N/A   Clear
11:34 PM 64.4 °F 32.0 °F 30% 30.24 in 10.0 mi SE 9.2 mph - N/A   Clear
11:54 PM 64.4 °F 32.0 °F 30% 30.23 in 10.0 mi SE 11.5 mph - N/A   Clear